User: anonymous   Login
Location: *
(10.4782°N, 67.2163°W)
Time: 09:26:03
(UTC+00:00)
Language:

Cosmos 332 Rocket - Orbit

View from above orbital plane
View from above orbital plane
View from above satellite
View from above satellite

Ground track
Ground track

The orbit data is extracted from the following two-line orbital elements,

1 04370U 70028B   24197.73018166  .00001245  00000-0  25582-3 0  9993
2 04370  74.0373 194.5223 0015050 179.7488 180.3689 14.61670849388900
Epoch (UTC): 15 July 2024 17:31:27
Eccentricity: 0.0015050
inclination: 74.0373°
perigee height: 677 km
apogee height: 698 km
right ascension of ascending node: 194.5223°
argument of perigee: 179.7488°
revolutions per day: 14.61670849
mean anomaly at epoch: 180.3689°
orbit number at epoch: 38890

The dashed part of the orbit path shows where the satellite is in the earth's shadow,  

DLR